Weather History for Park Rapids, MN

Change the Weather History Date:

Tuesday, January 29, 2013

  Actual Average Record
Temperature  
Mean Temperature 23 °F -  
Max Temperature 30 °F 19 °F 44 °F (1992)
Min Temperature 14 °F -5 °F -41 °F (1951)
Degree Days  
Heating Degree Days 42    
Moisture  
Dew Point 21 °F    
Average Humidity 88    
Maximum Humidity 96    
Minimum Humidity 79    
Precipitation  
Precipitation 0.14 in - - ()
Sea Level Pressure  
Sea Level Pressure 29.70 in    
Wind  
Wind Speed 8 mph (NNW)    
Max Wind Speed 15 mph    
Max Gust Speed 18 mph    
Visibility 6 miles    
Events Snow    
Averages and records for this station are not official NWS values.
T = Trace of Precipitation, MM = Missing Value Source: NWS Daily Summary

Daily Weather History Graph

Daily Weather History Graph

Search for Another Location

Airport:

Trip Planner

Search our weather history database for the weather conditions in past years. The results will help you decide how hot, cold, wet, or windy it might be!

Date:

Astronomy

Jan. 29, 2013 Rise Set
Actual Time 7:48 AM CST 5:19 PM CST
Civil Twilight 7:15 AM CST 5:52 PM CST
Nautical Twilight 6:38 AM CST 6:28 PM CST
Astronomical Twilight 6:03 AM CST 7:04 PM CST
Moon 8:31 PM CST (1/29) 8:32 AM CST (1/29)
Length of Visible Light 10h 36m
Length of Day
9h 31m
Waning Gibbous, 93% of the Moon is Illuminated
Jan 29
Waning Gibbous
Feb 3
Last Quarter
Feb 10
New
Feb 17
First Quarter
Feb 25
Full

Hourly Weather History & Observations

Time (CST) Temp. Windchill Dew Point Humidity Pressure Visibility Wind Dir Wind Speed Gust Speed Precip Events Conditions
12:00 AM 30.2 °F 26.7 °F 28.4 °F 93% 29.63 in 1.0 mi NNE 3.5 mph - 0.01 in Snow Light Snow
12:13 AM 30.2 °F 24.3 °F 28.4 °F 93% 29.63 in 1.2 mi North 5.8 mph - 0.02 in Snow Light Snow
12:53 AM 30.0 °F 25.2 °F 28.9 °F 96% 29.66 in 1.2 mi NNE 4.6 mph - 0.03 in Snow Light Snow
1:07 AM 30.2 °F 24.3 °F 28.4 °F 93% 29.60 in 2.0 mi North 5.8 mph - 0.01 in Snow Light Snow
1:53 AM 30.0 °F 22.4 °F 28.0 °F 92% 29.64 in 1.8 mi NNW 8.1 mph - 0.01 in Snow Light Snow
2:26 AM 28.4 °F 19.7 °F 26.6 °F 93% 29.58 in 1.0 mi NNW 9.2 mph - 0.01 in Snow Light Snow
2:45 AM 28.4 °F 20.4 °F 26.6 °F 93% 29.59 in 1.2 mi NNW 8.1 mph - 0.01 in Snow Light Snow
2:53 AM 28.9 °F 20.4 °F 27.0 °F 92% 29.65 in 1.5 mi NNW 9.2 mph - 0.02 in Snow Light Snow
3:15 AM 28.4 °F 20.4 °F 26.6 °F 93% 29.60 in 1.0 mi NNW 8.1 mph - 0.01 in Snow Light Snow
3:23 AM 28.4 °F 21.2 °F 26.6 °F 93% 29.59 in 0.8 mi NNW 6.9 mph - 0.02 in Snow Light Snow
3:53 AM 28.0 °F 20.0 °F 26.1 °F 92% 29.63 in 1.0 mi NNW 8.1 mph - 0.05 in Snow Light Snow
4:53 AM 27.0 °F 18.0 °F 25.0 °F 92% 29.64 in 1.2 mi NNW 9.2 mph - 0.02 in Snow Light Snow
5:05 AM 26.6 °F 17.5 °F 24.8 °F 93% 29.58 in 1.8 mi NNW 9.2 mph - 0.00 in Snow Light Snow
5:17 AM 26.6 °F 18.2 °F 24.8 °F 93% 29.58 in 2.0 mi NNW 8.1 mph - 0.00 in Snow Light Snow
5:25 AM 26.6 °F 20.0 °F 24.8 °F 93% 29.59 in 2.0 mi NNW 5.8 mph - 0.00 in Snow Light Snow
5:33 AM 26.6 °F 22.6 °F 24.8 °F 93% 29.60 in 1.8 mi North 3.5 mph - 0.00 in Snow Light Snow
5:53 AM 27.0 °F 18.7 °F 24.1 °F 89% 29.62 in 1.5 mi North 8.1 mph - 0.01 in Snow Light Snow
6:13 AM 26.6 °F 16.2 °F 23.0 °F 86% 29.55 in 2.0 mi North 11.5 mph - 0.00 in Snow Light Snow
6:40 AM 24.8 °F 16.1 °F 21.2 °F 86% 29.57 in 3.0 mi NNW 8.1 mph - 0.00 in Snow Light Snow
6:53 AM 24.1 °F 14.4 °F 21.9 °F 91% 29.63 in 4.0 mi NW 9.2 mph - 0.00 in   Overcast
7:53 AM 24.1 °F 15.2 °F 21.0 °F 88% 29.66 in 4.0 mi NW 8.1 mph - N/A   Overcast
8:53 AM 24.1 °F 13.1 °F 21.0 °F 88% 29.69 in 5.0 mi NW 11.5 mph - N/A   Overcast
9:10 AM 24.8 °F 14.6 °F 21.2 °F 86% 29.63 in 5.0 mi NW 10.4 mph - N/A   Overcast
9:19 AM 24.8 °F 14.6 °F 21.2 °F 86% 29.63 in 5.0 mi NW 10.4 mph - N/A   Overcast
9:53 AM 24.1 °F 14.4 °F 21.0 °F 88% 29.70 in 5.0 mi NNW 9.2 mph - N/A   Overcast
10:53 AM 25.0 °F 12.6 °F 21.0 °F 85% 29.72 in 8.0 mi North 15.0 mph - N/A   Overcast
11:24 AM 24.8 °F 13.4 °F 21.2 °F 86% 29.66 in 10.0 mi NNW 12.7 mph - N/A   Overcast
11:53 AM 26.1 °F 14.5 °F 21.0 °F 81% 29.72 in 10.0 mi NNW 13.8 mph - N/A   Overcast
12:53 PM 26.1 °F 15.0 °F 21.0 °F 81% 29.73 in 10.0 mi NNW 12.7 mph - N/A   Overcast
1:53 PM 25.0 °F 14.2 °F 21.0 °F 85% 29.73 in 10.0 mi NNW 11.5 mph - N/A   Overcast
2:53 PM 25.0 °F 14.2 °F 19.9 °F 81% 29.74 in 10.0 mi NNW 11.5 mph - N/A   Overcast
3:53 PM 24.1 °F 11.5 °F 19.0 °F 81% 29.78 in 10.0 mi NNW 15.0 mph 18.4 mph N/A   Overcast
4:39 PM 23.0 °F 12.4 °F 19.4 °F 86% 29.74 in 3.0 mi NNW 10.4 mph - N/A   Overcast
4:53 PM 21.9 °F 11.0 °F 19.0 °F 89% 29.81 in 8.0 mi NNW 10.4 mph - N/A   Overcast
5:39 PM 21.2 °F 10.1 °F 17.6 °F 86% 29.75 in 10.0 mi NNW 10.4 mph - N/A   Overcast
5:53 PM 21.9 °F 11.0 °F 18.0 °F 85% 29.81 in 10.0 mi North 10.4 mph - N/A   Overcast
6:20 PM 21.2 °F 10.9 °F 17.6 °F 86% 29.74 in 10.0 mi NNW 9.2 mph - N/A   Overcast
6:53 PM 21.9 °F 11.0 °F 17.1 °F 82% 29.83 in 10.0 mi North 10.4 mph - N/A   Overcast
7:33 PM 21.2 °F 11.7 °F 17.6 °F 86% 29.78 in 10.0 mi NNW 8.1 mph - N/A   Overcast
7:53 PM 21.0 °F 11.4 °F 16.0 °F 81% 29.86 in 10.0 mi NNW 8.1 mph - N/A   Overcast
8:14 PM 19.4 °F 7.9 °F 15.8 °F 86% 29.77 in 10.0 mi NW 10.4 mph - N/A   Overcast
8:39 PM 19.4 °F 9.5 °F 15.8 °F 86% 29.78 in 9.0 mi NW 8.1 mph - N/A   Overcast
8:53 PM 19.9 °F 10.1 °F 16.0 °F 85% 29.85 in 10.0 mi NW 8.1 mph - N/A   Overcast
9:11 PM 19.4 °F 9.5 °F 15.8 °F 86% 29.76 in 10.0 mi NNW 8.1 mph - N/A   Overcast
9:53 PM 19.0 °F 6.1 °F 15.1 °F 85% 29.85 in 10.0 mi NNW 12.7 mph - N/A   Overcast
10:31 PM 17.6 °F 3.2 °F 12.2 °F 79% 29.78 in 9.0 mi NW 15.0 mph - N/A   Overcast
10:53 PM 16.0 °F 1.7 °F 12.0 °F 84% 29.86 in 9.0 mi NW 13.8 mph - N/A   Overcast
11:53 PM 14.0 °F 0.5 °F 10.0 °F 84% 29.87 in 8.0 mi NNW 11.5 mph - N/A   Overcast